Location: Borea
(45.6167°N, 23.0167°E)
Time: 11:38:53
(UTC+00:00)

Cosmos 2322 Rocket - Pass Details

Date: 03 February 2023
Orbit: 831 x 852 km, 71.0° (Epoch: 30 March)

Event Time Altitude Azimuth Distance (km) Brightness Sun altitude
Rises 16:32:12 0° 193° (SSW) 3,361 5.7 -10.1°
Reaches altitude 10° 16:34:39 10° 189° (S) 2,431 4.9 -10.5°
Maximum altitude 16:40:07 61° 111° (ESE) 945 2.2 -11.4°
Drops below altitude 10° 16:45:38 10° 32° (NNE) 2,450 4.2 -12.3°
Enters shadow 16:47:05 - 30° (NNE) 3,003 4.7 -12.6°
